Location: Bay Harbour
(38.2612°N, 75.2555°W)
Time: 02:08:42
(UTC+00:00)

CZ-4B R/B - Pass Details

Date: 29 October 2020
Orbit: 388 x 461 km, 97.6° (Epoch: 02 December)

Event Time Altitude Azimuth Distance (km) Brightness Sun altitude
Rises 23:21:23 0° 354° (N) 2,367 5.1 -15.7°
Reaches altitude 10° 23:23:50 10° 335° (NNW) 1,483 4.3 -16.1°
Maximum altitude 23:26:02 18° 290° (WNW) 1,083 4.2 -16.6°
Drops below altitude 10° 23:28:13 10° 246° (WSW) 1,450 5.1 -17.0°
Sets 23:30:34 0° 226° (SW) 2,291 5.8 -17.4°
